CAPE
1168 1826 3015 2812 2850 2789 2587 2966 3368 3511 3493 3506 3490 3179 3192 2952 2506 2396 2334 2038 2051 1975 1868 1634 1186 1313 1391 1554 1216 1190 1477 1359 1164 1230 1329 1123 1030 864 763 297 187 260 392
1236 1807 2967 3001 2893 2796 2927 3083 3273 3488 3484 3541 3510 3505 3286 3160 2548 2426 2312 2064 2132 2050 1889 1669 1510 1485 1366 1552 1177 1487 1584 1593 1772 1259 1131 1129 1099 841 500 119 588 742 773
1244 1534 1960 3012 3075 2656 2908 3217 3136 3218 2967 3169 3425 3225 2922 2997 2483 2317 2207 2052 1910 1812 1789 1745 1661 1565 1335 1495 1354 1583 1626 1824 1677 1151 1082 752 909 614 382 124 771 58 359
1234 1401 1550 3112 3088 2911 2846 3112 3173 2916 2605 2749 2939 2877 2722 2650 2530 2308 2227 1996 1815 1859 1915 1764 1788 1570 1579 1457 1763 1706 1371 1361 1702 1290 801 424 374 706 822 711 452 581 530
1418 1493 1876 3400 3341 2781 2865 3087 3230 3248 2820 2650 2637 2643 2785 2910 2631 2395 2255 2086 2042 2069 1926 1863 1871 1652 1599 1541 1598 1685 1929 1719 1476 958 952 909 745 849 773 663 447 488 457
1690 1611 2845 3497 3236 3004 2860 3150 3197 3188 3253 3012 2799 2903 2998 2967 2464 2268 2038 1976 2101 1995 1940 1714 1753 1564 1451 1691 1696 1691 1891 1645 1469 854 1016 967 838 1082 1013 743 537 317 477
1960 1864 2529 3572 3530 3430 3488 3416 3143 3258 3042 2845 2836 2988 2973 2752 2799 2635 2540 2295 2057 1985 1816 1533 1533 1658 1561 1810 1822 1843 2009 1615 896 1097 1089 831 941 1555 1042 903 748 458 726
2026 1939 2350 3269 3622 3668 3428 3139 3087 2987 2868 2681 2583 2665 2756 3009 2914 2948 2477 2329 2191 1923 1823 1712 1532 1725 1558 1723 1965 1951 2189 1362 1137 997 878 1043 1221 1570 1181 1000 1012 350 764
2162 2247 2574 2802 3234 3424 3619 3370 3294 3020 2883 2911 2862 3114 3011 3074 2770 2663 2368 2472 2419 2095 1941 1657 1962 1675 1750 1642 2039 1862 1827 1201 846 1133 1060 716 1584 1549 1317 879 1050 654 821
2379 2522 2759 3005 3105 3250 3102 3569 3583 3400 2991 2992 2854 2792 2679 2663 2754 2306 2814 2705 2544 2340 2188 1918 1925 2358 2269 2129 1996 1688 1586 1404 1034 1208 1318 592 1912 1331 1452 922 570 1132 1026
2310 2420 2661 3017 3223 3708 3650 3758 3753 2970 2899 2869 2886 2761 2741 2320 2310 1851 2636 2528 2429 2156 2110 1988 1844 1971 2108 2073 1837 1952 1369 982 1061 1255 994 1444 2137 1417 1601 1505 1287 1255 1026
2096 2499 2601 2946 2858 2897 3165 3526 3607 3088 3075 3091 3189 3154 2609 2343 2624 1940 2470 2525 2245 2199 2202 2042 1790 1875 1824 2341 1367 1542 905 1226 1102 1302 1163 1509 1920 1595 1587 1706 1821 1018 1110
2358 2387 2756 2930 2925 2899 3148 3334 3317 2834 3041 3153 3104 3467 3005 3052 2739 2206 2382 2147 2181 2444 2115 2024 1847 1793 1680 1959 2246 1558 1654 1230 913 1036 1181 1413 1962 1676 1671 1512 1706 929 722
2321 2042 2404 2709 2910 3071 3217 3302 3543 3568 3578 3329 2583 2546 2551 2420 2453 2437 2227 2479 2610 2315 2610 2393 2055 1984 1980 1821 1575 1717 1690 1583 828 922 995 1472 1796 2042 2243 1654 1561 1529 1206
2513 2380 2386 2574 2761 2987 3071 2976 3195 3004 2694 3210 2917 2153 910 273 499 2866 2342 2350 2222 2261 2263 2300 2261 2281 2066 1991 1848 1667 1368 1323 1251 750 743 1549 1837 1893 2218 1877 1402 1506 1396
2530 2449 2460 2332 2668 2856 2895 2966 2951 2774 2689 2280 2151 2372 1350 485 949 2373 2366 2519 2427 2351 2057 2042 1875 1907 2131 1931 1598 1646 1659 1550 1330 947 493 1053 1883 1848 2047 2261 1435 1838 1389
2529 2563 2182 2386 2412 2614 2702 2891 2874 2812 2153 2111 1901 1766 1645 2095 2148 2018 2280 1905 2006 2641 2160 2067 2001 1991 1894 1879 1764 1591 1579 1587 1475 1109 736 872 1123 1405 1670 1314 1506 1551 1830
2660 2428 2304 1958 2161 2409 2516 2393 2146 1887 1797 1703 1831 1672 1700 1601 1593 1793 2177 1476 1630 2096 2197 1858 1888 1591 1457 1480 1695 2144 2069 1611 1609 1443 981 732 1112 926 1187 1680 1256 1264 1107
1396 987 729 1105 1530 1562 1595 1742 1983 1996 1699 1513 1468 1608 1840 1779 1739 1629 1309 1734 1733 1496 1496 1425 1770 1679 1322 1148 1222 1614 1804 1783 1821 1545 1375 917 941 1064 877 1270 1112 1113 946
749 527 483 434 490 1332 1418 1075 1248 1285 1171 850 778 812 859 900 1319 1672 1259 1297 1432 1040 1206 1268 1258 1150 1293 1075 787 887 1769 1300 1799 1518 1470 1049 906 1139 1212 1127 1121 826 1079
686 233 420 389 276 318 851 1534 1771 1853 2048 1707 1786 1424 1125 1294 1427 1562 1403 1329 1132 996 1280 1481 1773 1271 1154 1148 902 787 1196 1172 1291 1490 1476 1063 1157 1177 1300 1317 991 992 944
725 487 107 374 191 72 462 708 1329 1330 1198 1070 842 824 762 711 788 989 1062 1351 1272 1227 1067 1397 1351 1385 965 1136 662 931 735 1025 1085 1249 1343 1413 1434 1400 1288 1353 1287 1402 1313
388 336 335 188 140 31 37 1004 1034 1121 1042 1066 761 577 456 356 528 682 561 792 1422 496 439 605 1337 883 1071 1006 1089 1171 832 310 1107 1215 1577 1499 1492 1620 1461 1658 1575 1341 1490
205 120 93 68 21 34 286 1273 1158 1213 1012 506 273 197 245 164 179 316 691 647 803 701 199 281 1209 1551 1776 938 877 812 554 342 1178 1027 983 1329 1451 1646 1629 1744 1525 1448 1752
508 392 67 0 7 33 658 1449 1075 758 267 169 300 347 450 319 209 240 368 710 988 913 631 149 385 1436 1278 1624 891 771 946 1038 548 301 454 690 908 1106 1273 1632 1477 1536 1635
309 257 9 38 175 1009 1390 815 438 266 360 316 319 254 244 182 235 471 413 607 814 961 1053 1100 978 1110 1148 1149 1086 826 676 849 1318 1118 715 599 401 394 556 886 1170 1040 1042
CIN
-31 -0 -0 -0 -0 -2 -7 -3 -0 -0 -0 -0 -0 -0 -0 -0 -0 -0 -0 -0 -0 -1 -1 -5 -4 -6 -1 -0 -4 -3 -0 -0 -0 -0 -0 -0 -0 -0 -0 -0 -1 -1 -0
-59 -2 -0 -0 -0 -0 -0 -0 -0 -0 -0 -0 -0 -0 -0 -0 -0 -0 -0 -0 -0 -1 -0 -4 -5 -4 -2 -1 -4 -0 -0 -0 -0 -0 -0 -0 -0 -0 -0 -1 -0 -0 -0
-68 -22 -0 -0 -0 -2 -0 -0 -0 -0 -0 -0 -0 -0 -0 -0 -0 -0 -0 -0 -0 -0 -0 -0 -2 -2 -1 -2 -2 -0 -0 -0 -0 -0 -0 -0 -0 -0 -0 -8 -0 -7 -0
-89 -47 -17 -0 -0 -1 -0 -0 -0 -0 -2 -0 -0 -0 -0 -0 -0 -0 -0 -0 -1 -0 -0 -0 -0 -0 -0 -2 -0 -0 -0 -0 -0 -0 -0 -0 -0 -0 -0 -0 -0 -0 -0
-54 -40 -8 -0 -0 -0 -0 -0 -0 -0 -0 -0 -0 -0 -0 -0 -0 -0 -0 -0 -0 -0 -0 -0 -0 -0 -2 -1 -0 -0 -0 -0 -0 -0 -0 -0 -0 -0 -0 -0 -0 -0 -0
-28 -27 -0 -0 -0 -0 -0 -0 -0 -0 -0 -0 -0 -0 -0 -0 -0 -0 -0 -1 -0 -0 -0 -1 -0 -0 -0 -0 -0 -0 -0 -0 -0 -0 -0 -0 -0 -0 -0 -0 -0 -0 -0
-11 -15 -0 -0 -0 -0 -0 -0 -0 -0 -0 -0 -0 -0 -0 -1 -1 -1 -0 -2 -6 -3 -2 -1 -0 -0 -0 -0 -0 -0 -0 -0 -0 -0 -0 -0 -0 -0 -0 -0 -0 -0 -0
-18 -17 -1 -0 -0 -0 -0 -0 -0 -0 -0 -0 -2 -0 -0 -1 -1 -0 -0 -2 -3 -6 -4 -2 -0 -0 -0 -0 -0 -0 -0 -0 -4 -0 -0 -0 -3 -0 -0 -0 -0 -1 -0
-6 -5 -0 -0 -0 -0 -0 -0 -0 -0 -0 -0 -0 -0 -0 -0 -0 -0 -0 -0 -1 -4 -3 -7 -0 -1 -0 -0 -0 -0 -0 -1 -0 -0 -0 -0 -4 -0 -0 -0 -0 -0 -0
-2 -1 -0 -0 -0 -0 -0 -0 -0 -0 -0 -0 -0 -0 -0 -0 -0 -0 -0 -0 -0 -1 -3 -3 -2 -0 -0 -0 -0 -0 -0 -0 -0 -0 -0 -0 -2 -1 -0 -0 -1 -0 -0
-2 -4 -6 -0 -0 -0 -0 -0 -0 -0 -0 -0 -0 -0 -0 -0 -0 -1 -0 -1 -0 -1 -3 -4 -5 -3 -2 -1 -0 -0 -0 -0 -0 -1 -0 -9 -0 -1 -0 -0 -0 -0 -0
-5 -1 -1 -0 -0 -0 -0 -0 -0 -0 -0 -2 -0 -0 -0 -0 -0 -0 -0 -0 -0 -0 -0 -3 -6 -4 -0 -0 -0 -0 -0 -0 -0 -0 -0 -15 -1 -0 -0 -0 -0 -0 -0
-4 -2 -2 -0 -0 -0 -0 -0 -0 -0 -0 -0 -0 -0 -0 -0 -0 -0 -0 -0 -0 -0 -0 -0 -0 -0 -0 -1 -2 -0 -0 -3 -4 -8 -0 -17 -2 -0 -0 -1 -1 -1 -0
-11 -23 -9 -0 -5 -0 -0 -0 -0 -0 -0 -0 -21 -18 -14 -8 -2 -0 -0 -0 -0 -0 -0 -0 -0 -0 -0 -1 -0 -2 -1 -0 -9 -12 -7 -18 -8 -0 -0 -2 -0 -0 -0
-9 -14 -25 -6 -0 -0 -0 -0 -0 -0 -1 -1 -11 -28 -33 -120 -19 -1 -0 -0 -0 -0 -0 -0 -0 -0 -1 -2 -3 -1 -2 -1 -4 -11 -15 -16 -12 -4 -0 -0 -3 -0 -0
-9 -15 -15 -18 -1 -0 -0 -1 -1 -18 -10 -6 -9 -5 -23 -99 -18 -4 -2 -2 -0 -1 -0 -0 -0 -0 -0 -0 -0 -3 -1 -0 -4 -10 -16 -4 -15 -11 -2 -0 -1 -0 -0
-17 -17 -40 -21 -7 -0 -12 -6 -9 -7 -12 -7 -9 -24 -5 -1 -3 -15 -2 -1 -2 -1 -12 -1 -1 -0 -0 -0 -1 -4 -2 -0 -0 -5 -5 -5 -1 -18 -8 -6 -2 -1 -0
-9 -9 -8 -42 -38 -24 -26 -25 -17 -17 -17 -11 -8 -10 -11 -9 -11 -9 -5 -3 -0 -0 -2 -1 -0 -1 -0 -0 -0 -0 -1 -3 -4 -2 -4 -5 -1 -0 -7 -2 -5 -4 -0
-70 -141 -103 -44 -50 -52 -39 -43 -37 -23 -24 -28 -29 -12 -6 -2 -2 -3 -9 -3 -9 -0 -0 -0 -1 -1 -0 -2 -3 -0 -7 -6 -0 -1 -5 -15 -1 -3 -1 -3 -13 -4 -1
-156 -168 -72 -207 -56 -41 -43 -62 -66 -48 -69 -78 -82 -65 -67 -61 -27 -5 -19 -15 -7 -0 -0 -0 -0 -0 -0 -0 -5 -3 -0 -12 -4 -1 -1 -5 -3 -0 -0 -2 -0 -6 -9
-137 -158 -191 -241 -126 -53 -73 -29 -10 -9 -8 -26 -21 -33 -37 -23 -14 -4 -5 -11 -21 -15 -0 -0 -0 -0 -0 -0 -0 -1 -4 -13 -8 -2 -0 -8 -0 -0 -4 -2 -0 -0 -0
-65 -156 -215 -161 -214 -46 -99 -77 -23 -33 -41 -40 -57 -52 -47 -48 -43 -31 -17 -2 -16 -8 -18 -1 -0 -0 -0 -0 -0 -0 -0 -3 -13 -9 -3 -0 -0 -0 -0 -0 -1 -1 -0
-220 -147 -111 -68 -197 -163 -312 -73 -61 -38 -24 -18 -29 -35 -25 -32 -21 -14 -30 -17 -0 -39 -50 -19 -0 -0 -0 -0 -0 -0 -0 -1 -5 -13 -6 -3 -1 -0 -0 -0 -1 -7 -1
-292 -254 -227 -170 -251 -264 -182 -41 -35 -11 -4 -38 -72 -67 -37 -25 -16 -2 -0 -11 -8 -14 -55 -30 -0 -0 -0 -0 -0 -0 -17 -34 -4 -5 -24 -16 -7 -1 -2 -0 -2 -5 -0
-260 -249 -169 -21 -155 -278 -113 -31 -33 -23 -85 -84 -62 -30 -0 -0 -2 -3 -0 -0 -0 -1 -14 -56 -6 -0 -0 -0 -0 -0 -0 -1 -22 -47 -10 -24 -32 -20 -10 -2 -2 -2 -0
-368 -347 -133 -369 -266 -74 -26 -68 -97 -101 -59 -48 -36 -23 -3 -12 -0 -0 -0 -0 -0 -0 -2 -3 -4 -0 -0 -0 -0 -0 -0 -1 -0 -7 -19 -16 -12 -24 -30 -20 -10 -6 -5
Wind_Speed
11 11 9 12 13 15 15 15 16 15 16 13 10 9 9 11 10 11 9 8 10 7 5 5 2 3 6 5 5 5 6 6 8 9 10 12 14 13 12 10 12 10 11
15 11 11 11 12 13 13 12 10 11 10 10 9 9 10 10 11 9 8 9 7 6 6 5 6 4 3 2 4 8 6 6 7 7 10 11 13 14 12 14 12 8 10
17 13 11 10 11 14 13 12 10 10 12 11 10 10 11 11 11 16 11 8 7 6 5 6 6 7 6 5 7 7 7 5 5 6 9 8 9 13 17 13 12 nan 12
22 17 16 13 12 13 12 13 14 14 15 14 14 12 13 14 16 14 18 7 5 6 6 6 5 8 6 5 6 6 5 5 3 5 6 7 8 12 14 16 14 15 13
21 18 16 14 16 16 13 13 13 13 16 17 17 14 11 12 14 13 12 4 5 6 6 6 6 7 7 6 6 6 4 3 4 7 5 6 5 9 13 12 15 14 18
19 17 17 17 17 16 16 15 13 13 12 12 12 13 14 12 11 10 10 9 5 3 5 7 8 8 8 8 7 6 7 6 4 4 5 5 6 9 11 11 11 13 15
21 16 16 15 15 17 15 14 14 13 13 11 10 10 11 13 11 9 7 9 8 5 4 7 7 9 9 9 9 8 9 9 3 2 4 5 4 8 11 10 11 13 13
23 18 16 18 18 17 17 14 13 12 11 11 11 9 8 7 9 8 5 5 5 7 8 8 7 8 11 9 9 8 6 9 6 4 3 4 5 9 11 11 12 13 15
20 16 15 17 19 19 18 16 14 13 12 10 11 10 8 8 8 8 5 5 3 5 5 9 9 10 10 11 10 8 7 9 5 3 4 3 8 11 15 12 13 14 16
20 18 17 17 17 16 15 17 16 13 12 10 8 8 9 6 6 7 7 5 6 6 4 5 8 11 6 11 12 8 7 7 4 2 3 5 9 11 15 16 13 13 15
18 19 17 17 18 19 15 14 16 15 12 8 10 5 6 4 5 6 8 8 7 8 8 4 5 9 8 9 11 10 10 9 8 8 6 14 9 10 14 15 13 12 14
21 18 17 18 17 16 15 15 13 14 12 13 11 6 5 5 5 6 7 7 7 10 9 8 7 9 10 11 15 9 12 12 10 10 8 14 11 13 15 18 11 12 13
24 25 23 18 24 19 15 13 11 11 13 14 12 11 9 9 8 7 11 11 10 10 13 12 11 9 11 17 10 11 12 13 12 11 10 13 11 13 16 17 14 13 12
26 24 23 25 22 21 14 13 12 10 10 12 16 15 16 13 2 8 13 14 15 14 13 14 14 9 9 10 9 9 12 13 14 11 11 11 13 16 13 16 15 12 11
30 24 20 20 21 18 15 11 7 8 9 7 12 17 22 25 10 11 14 18 17 19 17 18 15 14 12 10 11 15 9 12 7 9 10 8 12 12 12 14 14 13 12
27 20 14 14 16 15 12 11 7 5 5 7 7 13 22 16 2 15 16 17 18 21 22 22 20 19 14 15 12 14 11 6 8 8 8 10 14 13 12 12 8 14 14
32 19 14 12 12 11 13 8 7 5 6 6 5 7 11 11 10 14 19 19 19 19 19 23 23 20 20 16 15 14 15 13 12 8 9 11 9 10 12 11 14 13 10
32 10 15 12 14 11 13 14 9 6 5 4 7 8 9 10 8 13 17 17 21 19 21 19 24 25 20 18 14 21 18 17 12 11 14 11 9 8 9 9 9 10 13
40 35 19 18 17 14 15 12 13 11 10 12 13 13 13 12 14 15 17 19 19 19 20 21 22 23 21 20 17 19 24 19 15 14 14 16 6 9 8 13 7 10 10
45 41 40 34 26 20 18 14 14 14 12 14 15 12 12 16 18 19 21 23 23 20 20 21 21 22 23 22 21 20 24 23 23 16 14 15 8 9 8 6 8 6 9
49 43 34 35 32 19 18 14 10 14 14 16 18 17 17 21 21 19 19 23 30 27 24 22 23 20 22 25 24 21 20 23 26 23 19 19 12 9 10 11 12 9 11
32 37 33 17 23 nan 12 10 9 14 16 15 21 23 24 18 17 18 16 15 17 18 18 24 22 23 21 21 22 25 22 25 23 22 23 23 16 14 11 9 8 8 9
21 27 33 5 9 nan nan 9 13 14 16 17 23 26 22 16 17 16 16 17 16 18 20 20 20 18 21 21 18 23 21 17 25 27 26 25 21 17 14 20 11 11 12
17 18 nan nan nan nan 10 12 14 14 13 16 20 23 19 15 16 16 15 18 18 18 18 17 12 17 20 19 23 20 21 21 21 25 28 25 22 18 15 15 10 10 13
20 15 nan nan nan nan 9 14 12 9 14 15 17 14 13 16 19 14 15 17 16 16 20 25 14 14 17 20 21 23 19 17 23 24 26 28 25 19 18 18 20 18 16
16 18 nan nan 13 10 12 11 9 10 12 16 14 13 12 16 17 10 12 15 15 15 18 18 16 13 18 18 21 20 19 21 17 25 25 29 28 27 24 20 23 25 25
Wind_Direction
344 341 323 294 289 288 282 280 272 262 275 304 290 302 300 317 329 321 319 317 311 297 280 272 268 41 31 38 9 17 10 8 23 27 6 14 16 12 2 10 25 6 9
330 328 321 301 280 277 276 274 279 281 275 278 290 289 299 322 329 320 319 314 301 288 265 239 246 230 320 321 307 329 360 357 355 6 360 6 15 12 5 27 52 24 13
328 323 327 300 288 275 271 267 271 270 272 268 271 288 308 313 323 326 327 307 296 292 258 245 248 255 259 284 303 326 350 16 17 2 17 33 24 14 23 18 25 nan 29
335 337 333 320 306 290 284 278 270 275 282 284 291 299 309 315 317 298 318 323 321 302 275 233 237 261 268 281 290 318 357 29 12 341 55 49 25 21 13 23 25 32 39
343 341 329 320 310 307 299 282 283 280 284 289 297 303 308 313 321 327 339 308 11 341 306 249 249 255 269 288 291 301 323 338 355 34 50 62 64 15 18 13 18 26 39
344 341 328 321 315 309 299 297 297 294 294 290 286 296 306 310 312 315 328 327 314 17 309 284 266 259 264 290 294 288 281 298 343 24 56 43 60 344 15 18 12 11 18
341 334 331 324 317 307 306 309 305 313 310 317 317 307 306 308 315 310 321 317 339 324 295 299 290 277 273 284 291 290 292 297 295 357 31 24 15 356 353 359 357 3 5
341 336 331 326 324 320 319 322 318 320 326 335 332 337 325 297 298 313 296 288 304 322 316 287 302 304 291 292 278 275 289 301 299 298 334 6 321 355 344 336 343 349 355
345 341 333 334 334 330 322 316 320 323 330 332 337 346 344 323 316 296 294 253 257 303 318 315 312 275 289 298 283 277 279 300 294 263 342 4 342 359 341 335 334 344 346
347 346 345 335 332 323 317 313 310 315 318 317 327 342 348 347 317 314 288 259 234 252 273 311 318 324 267 281 293 287 295 279 276 264 336 320 341 355 333 335 339 341 345
353 354 350 347 334 322 324 316 304 308 306 350 298 332 326 318 307 291 275 259 228 237 249 257 281 277 276 296 271 280 290 254 256 258 280 299 344 349 330 326 336 347 355
359 356 0 350 333 331 322 319 300 302 284 274 270 273 260 258 258 262 265 279 254 228 234 245 248 257 289 250 226 248 237 244 249 255 267 301 341 342 337 327 336 355 2
5 356 352 357 340 341 327 318 303 299 295 294 301 275 251 239 248 258 253 261 254 254 238 255 258 256 264 264 227 216 236 246 237 248 273 310 336 335 328 332 339 341 3
5 1 1 350 344 343 341 337 324 306 305 297 301 297 258 211 177 295 264 258 258 243 236 231 236 247 264 277 278 264 218 237 230 242 263 316 330 348 349 322 333 314 358
13 12 359 346 340 341 352 341 327 307 305 296 303 299 291 264 157 285 279 261 257 254 240 242 240 239 246 261 258 262 247 221 230 233 251 318 330 334 354 340 334 30 10
6 10 356 343 338 328 330 340 335 301 291 287 290 301 313 324 97 272 277 268 261 266 255 240 244 242 247 254 258 262 270 254 245 237 246 257 322 333 337 345 359 12 8
350 358 349 326 324 326 317 297 287 286 304 308 295 296 305 313 282 261 264 266 263 265 261 256 244 243 240 253 253 241 247 243 252 273 266 269 283 331 327 337 345 7 354
342 342 336 315 310 320 320 296 281 292 292 298 300 290 294 298 276 264 261 260 267 267 257 259 243 242 246 252 257 228 240 245 249 252 258 255 269 272 313 322 337 333 342
319 290 269 259 267 264 274 279 281 285 289 293 294 296 299 295 292 281 272 262 264 265 254 245 238 237 245 253 253 230 232 241 247 258 271 257 275 270 288 293 318 327 338
329 305 311 290 243 254 275 269 282 279 294 301 300 292 294 295 301 287 276 277 267 259 255 249 243 241 241 246 249 235 229 234 243 253 260 245 250 294 293 289 271 281 346
338 326 325 292 250 244 261 264 287 290 287 307 305 311 306 300 299 298 286 274 273 260 253 256 251 244 240 245 245 245 234 235 235 242 243 254 241 280 294 272 241 257 270
357 9 351 280 233 nan 230 245 266 280 289 301 306 309 307 297 290 286 289 295 282 271 256 251 249 245 241 245 242 248 235 243 245 244 244 253 256 260 285 254 242 256 268
353 10 9 349 264 nan nan 260 284 299 306 317 311 312 311 305 285 293 302 288 289 274 270 259 249 255 241 244 249 245 245 245 245 246 239 242 238 252 277 248 239 261 279
6 351 nan nan nan nan 250 275 290 295 305 312 313 326 319 309 298 297 303 303 292 276 257 261 249 253 244 243 245 249 243 241 246 242 232 234 239 245 270 224 215 252 283
347 325 nan nan nan nan 286 292 293 304 310 311 313 329 330 305 294 287 302 303 292 279 266 271 240 270 250 234 239 246 247 251 248 241 232 238 244 242 255 230 255 258 277
331 325 nan nan 288 262 271 277 295 302 300 313 309 328 319 305 295 297 314 315 305 284 269 265 269 272 260 235 231 241 240 242 251 236 237 241 239 244 245 254 258 258 267